User: anonymous   Login
Location: Kitchener
(43.4500°N, 80.5000°W)
Time: 02:20:09
(UTC-04:00)
Language:

ATLAS 5 CENTAUR R/B - Orbit

View from above orbital plane
View from above orbital plane
View from above satellite
View from above satellite

Ground track
Ground track

The orbit data is extracted from the following two-line orbital elements,

1 31702U 07027B   17262.13916501 0.00000100  00000-0  32011-4 0    08
2 31702  63.3612 309.0646 0286000   4.9128 355.0871 14.18582879    06
Epoch (UTC): 19 September 2017 03:20:23
Eccentricity: 0.0286000
inclination: 63.3612°
perigee height: 624 km
apogee height: 1036 km
right ascension of ascending node: 309.0646°
argument of perigee: 4.9128°
revolutions per day: 14.18582879
mean anomaly at epoch: 355.0871°
orbit number at epoch: 0

The dashed part of the orbit path shows where the satellite is in the earth's shadow,  

DLR